星链-30078 (STARLINK-30078 )

导读

STARLINK-30078是美国太空探索技术公司(SpaceX)星链互联网卫星星座的一员,于2023年6月4日发射入轨。星链项目旨在为全球提供高速低延迟宽带互联网服务,该卫星承担星座组网任务,运行在近地轨道,是SpaceX批量部署星链卫星计划中的产物,推进了全球卫星互联网覆盖的进程。

基本信息
目录编号:
56841
目录名称:
STARLINK-30078
国际标识:
2023-079U
轨道中心:
EARTH
卫星名称:
星链-30078
卫星全名:
星链-30078 (STARLINK-30078 )
卫星状态:
在轨 (已飞行1110 天)
发射日期:
2023-06-04 UTC
国别 :
美国 (US)
星等 :
--
轨道信息
数据来源 国际轨道数据
星历时间: 2026-06-18T10:12:33+0800
12小时前
查看轨道信息
半长轴: 6861.175km
偏心率: 0.0001313
轨道倾角: 43.004°
近地点辐角 275.959°
升交点赤经 212.345°
平近点角 84.112°
近地点: 482.137km
远地点: 483.939km
周期: 94.267分钟
每日圈数: 15.275839
详细信息
固有亮度:
5
最大亮度:
0.5
卫星平台:
Starlink v2.0 mini
覆盖范围:
全球
运营商:
太空探索技术公司
运营商所在国:
美国
制造商(研发单位):
太空探索技术公司
制造商所在国:
美国
使用方式:
暂无
卫星简介
星链(Starlink)计划是由太空探索技术公司(SpaceX)提出的一个巨型低轨卫星互联网星座项目,计划在2019年至2024年间在太空搭建由约1.2万颗卫星组成的“星链”网络,其中1584颗将部署在地球上空550千米处的近地轨道,并从2020年开始工作。该卫星仍在工作。
2D轨道图
3D轨道图
轨道高度分析图
轨道倾角分析图
轨道综合分析图
查看轨道综合分析图